Regional Weather Roundup
Issued by NWS Grand Forks, ND

Home | Current Version | Previous Version | Graphics & Text | Print | Product List | Glossary On
Versions: 1 2 3 4 5 6 7 8 9 10 11 12 13 14 15 16 17 18 19 20 21 22 23 24 25 26 27 28 29 30 31 32 33 34 35 36 37 38 39 40 41 42 43 44 45 46 47 48 49 50
000
ASUS43 KFGF 301510
RWRFGF
PRAIRIE TO PINES  WEATHER ROUNDUP
NATIONAL WEATHER SERVICE EASTERN NORTH DAKOTA/GRAND FORKS ND
1000 AM CDT MON MAY 30 2016

 **SATELLITE DATA USED TO AUGMENT SKY COVER AT AUTOMATED STATIONS**
 *****  WEATHER ACROSS EASTERN NORTH DAKOTA  *****

CITY           SKY/WX    TMP DP  RH WIND       PRES   REMARKS
GRAND FORKS    CLOUDY    68  54  60 SE5       29.92F
GRAND FRKS AFB CLOUDY    68  54  60 S10       29.90F
GRAND FRKS NWS   N/A     66 N/A N/A E3          N/A
DEVILS LAKE    SUNNY     68  54  60 SW6       29.91S
FARGO          SUNNY     73  53  49 S9        29.92F
WAHPETON ARPT  SUNNY     72  48  43 S3        29.95S
$$

 ***** WEATHER ACROSS CENTRAL AND WESTERN NORTH DAKOTA  *****

CITY           SKY/WX    TMP DP  RH WIND       PRES   REMARKS
BISMARCK       SUNNY     68  55  63 CALM      29.90F
MINOT          MOSUNNY   73  54  51 N5        29.88F
JAMESTOWN      SUNNY     72  56  57 S10       29.90F
MINOT AFB      MOSUNNY   68  51  54 E5        29.88S
GARRISON         N/A     65  51  60 S8        29.90S
WILLISTON      CLOUDY    56  48  74 SW12      29.93R
DICKINSON      CLOUDY    57  50  77 NW13      29.90R
HETTINGER      CLOUDY    65  55  70 SE7       29.89F
$$

 *****  OTHER AIRPORT OBSERVATIONS IN OUR AREA  *****

CITY           SKY/WX    TMP DP  RH WIND       PRES   REMARKS
WALHALLA       FAIR      73  68  83 NE9       29.90S
GRAFTON AIRPOR FAIR      70  52  52 S9        29.92S
VALLEY CITY AR FAIR      72  57  60 S9        29.94S
CANDO          NOT AVBL
CAVALIER APRT  FAIR      70  54  56 SW6       29.90S
GWINNER        FAIR      73  57  56 SW9       29.93F
SHEYENNE NWR     N/A     74  57  54 SW7       29.95
ROLLA          FAIR      72  41  33 W8        29.92F
 ***** THE ABOVE OBSERVATIONS ARE NON NWS ARE NOT QUALITY
       CONTROLLED AND MAY MIS-REPORT RAIN FOR SNOW...
$$

  *****  WEATHER ACROSS NORTHERN MINNESOTA  *****

CITY           SKY/WX    TMP DP  RH WIND       PRES   REMARKS
FLAG ISLAND    MOSUNNY   61  54  77 N6        29.95S
WARROAD        SUNNY     61  57  88 E9        29.95S
ROSEAU         SUNNY     66  55  68 CALM      29.94S
HALLOCK        SUNNY     68  54  60 SW3       29.92R
THF RVR FALLS  CLOUDY    70  48  46 CALM      29.95S
BAUDETTE       SUNNY     67  54  63 CALM      29.95S
WASKISH        SUNNY     66  54  63 SW7       29.96S
CROOKSTON      MOSUNNY   70  55  60 S5        29.94S
STEPHEN NDAWN    N/A     70  54  56 S7          N/A
GREENBUSH NDAW   N/A     72  54  53 SW3         N/A
$$
  *****  WEATHER ACROSS CENTRAL AND WEST MINNESOTA  *****

CITY           SKY/WX    TMP DP  RH WIND       PRES   REMARKS
FOSSTON        MOSUNNY   70  55  60 CALM      29.95F
BEMIDJI        MOSUNNY   71  51  49 SW5       29.97S
PARK RAPIDS    MOSUNNY   74  47  38 S9        29.97S
ELBOW LAKE     FAIR      72  53  51 S5        29.96F
WADENA         SUNNY     73  50  43 SW6       29.97S
DETROIT LAKES  SUNNY     72  52  49 SW8       29.98R
MOORHEAD       SUNNY     70  55  60 S7        29.94S
FERGUS FALLS   SUNNY     73  52  46 CALM      29.93S
MORRIS MN      SUNNY     75  54  46 CALM      29.95S
STAPLES        SUNNY     72  48  43 S3        29.98S
$$
  *****  WEATHER ELSEWHERE ACROSS MINNESOTA  *****

CITY           SKY/WX    TMP DP  RH WIND       PRES   REMARKS
DULUTH         SUNNY     72  50  45 W14       29.97S
INTRNTL FALLS  SUNNY     67  53  61 W6        29.95S
ELY            SUNNY     66  52  59 W13       29.96S
CLOQUET        SUNNY     72  48  43 W5        29.98S
WHEATON        SUNNY     79  55  44 CALM      29.95S
BRAINERD       MOSUNNY   71  53  52 W3        29.98F
HIBBING        SUNNY     69  50  50 NW9       29.97S
ALEXANDRIA     SUNNY     72  50  45 SW6       29.99F
SAINT CLOUD    MOSUNNY   72  54  53 S5        29.98F
MINNEAPOLIS    PTSUNNY   74  56  53 SW6       30.00F
$$

  *****  WEATHER ACROSS SOUTH DAKOTA  *****

CITY           SKY/WX    TMP DP  RH WIND       PRES   REMARKS
SIOUX FALLS    PTSUNNY   71  58  63 S12       30.00R
BROOKINGS      MOSUNNY   70  55  59 S16       29.98S
WATERTOWN      SUNNY     71  56  58 S14       29.96S
HURON          CLOUDY    67  58  72 S15G21    29.92F
SISSETON         N/A     79  46  31 SE5       29.92S
ABERDEEN       SUNNY     72  55  55 SW3       29.92F
MITCHELL       CLOUDY    70  58  65 S17       29.96S
PIERRE         MOSUNNY   71  56  58 SE18G26   29.88F
MOBRIDGE       SUNNY     69  58  67 SE14      29.87F
RAPID CITY     PTSUNNY   63  56  78 SE7       29.87S
$$

  *****  SOME WEATHER IN NEARBY STATES *****

CITY           SKY/WX    TMP DP  RH WIND       PRES   REMARKS
GLASGOW MT     CLOUDY    60  50  69 CALM      29.92S
GREAT FALLS MT CLOUDY    47  43  86 NW10      30.10R
CHEYENNE WY    SUNNY     66  39  37 NW5       30.07S
SCOTTSBLUFF NE SUNNY     67  49  52 VRB5      29.98S
OMAHA NE       PTSUNNY   75  64  68 S7        30.00S
DES MOINES IA  MOSUNNY   78  63  59 SW5       30.02S
DAVENPORT IA   CLOUDY    76  60  57 CALM      30.06S
CHICAGO IL     MOSUNNY   77  59  53 SW6       30.03S
EAU CLAIRE WI  MOSUNNY   72  56  57 S7        30.02R
LA CROSSE WI   MOSUNNY   70  61  73 S6        30.04R
$$

  *****  SOME NATIONAL WEATHER *****

CITY           SKY/WX    TMP DP  RH WIND       PRES   REMARKS
LA GUARDIA NY  PTSUNNY   74  71  91 NW3       29.99F
RALEIGH NC     CLOUDY    74  70  87 NE3       30.00F
ATLANTA GA     PTSUNNY   83  63  50 CALM      30.05S
NEW ORLEANS LA PTSUNNY   85  71  63 VRB5      30.04S HX  90
OKLAHOMA CITY  CLOUDY    69  64  84 SE6       30.06R
ALBUQUERQUE NM PTSUNNY   63  43  48 N6        30.15R
SALT LAKE CITY MOSUNNY   65  44  46 SE9       30.10S
LOS ANGELES CA CLOUDY    61  54  77 CALM      30.01S
BOISE ID       MOSUNNY   55  40  56 W10       30.17R
SEATTLE WA     MOSUNNY   54  45  71 N7        30.31S
$$

*** WEATHER ACROSS MANITOBA...SASKATCHEWAN AND ONTARIO ***
                ***ONTARIO***

CITY           SKY/WX    TMP DP  RH WIND       PRES   REMARKS
GERALDTON      LGT RAIN  50  48  93 W13G21    29.80S
THUNDER BAY    PTSUNNY   64  52  63 W18G26    29.88S
SIOUX LOOKOUT  LGT RAIN  52  48  87 NW12      29.96R
TORONTO        PTSUNNY   77  59  53 W13G18    29.91F
BIG TROUT LK   SUNNY     48  30  49 N8        30.01R
PICKLE LAKE    LGT RAIN  41  41 100 N7        29.94R FOG
DRYDEN         CLOUDY    55  50  82 NW7       29.97R
KENORA         MOSUNNY   57  52  82 NE7       29.97F
$$
                *** MANITOBA***

CITY           SKY/WX    TMP DP  RH WIND       PRES   REMARKS
BRANDON        MOSUNNY   68  52  56 VRB2      29.90S
DAUPHIN        CLOUDY    54  54 100 E5        29.94S
ISLAND LAKE    CLOUDY    48  43  81 E3        30.04R
PILOT MOUND      N/A     70  48  46 W5          N/A
THE PAS        DRIZZLE   52  50  93 N6        29.97R FOG
THOMPSON       LGT RAIN  39  37  93 NE8       30.09R
WINNIPEG       MOSUNNY   64  55  72 E12       29.92F
LYNN LAKE        N/A     41  39  93 MISG      30.09R
CHURCHILL      FLURRIES  28  25  86 E10       30.29R WCI  19
GILLAM         PTSUNNY   36  30  80 NE9       30.17R
$$
                ***SASKATCHEWAN***

CITY           SKY/WX    TMP DP  RH WIND       PRES   REMARKS
ESTEVAN        CLOUDY    66  48  52 VRB2      29.89S
KINDERSLEY     LGT RAIN  50  48  93 E21G26    29.88R
LLOYDMINSTER   CLOUDY    52  50  93 N7        29.97S
PRINCE ALBERT  PTSUNNY   54  46  76 E12       29.98S
REGINA         MOSUNNY   61  48  63 NE7       29.88S
YORKTON        CLOUDY    52  50  93 NE8       29.94R
N. BATTLEFORD  CLOUDY    54  46  76 E8        29.97R
LA RONGE       MOSUNNY   54  46  76 NE8       30.02R
SASKATOON      CLOUDY    52  48  87 NE16      29.95S
SWIFT CURRENT  PTSUNNY   52  46  82 W18       29.89R
$$
NOTE: THESE ARE AUTOMATED STATIONS WITH LIMITED QUALITY CONTROL
      "FAIR" INDICATES FEW OR NO CLOUDS BELOW 12,000 FEET WITH NO
      SIGNIFICANT WEATHER AND/OR OBSTRUCTIONS TO VISIBILITY.
      SKY/WX - SKY CONDITION AND SIGNIFICANT WEATHER.
      TMP - AIR TEMPERATURE.    DP   - DEWPOINT TEMPERATURE.
      RH  - RELATIVE HUMIDITY.  PRES - PRESSURE.
      HX  - HEAT INDEX.         WCI  - WIND CHILL INDEX.
$




USA.gov is the U.S. government's official web portal to all federal, state and local government web resources and services.